owner,sensor,date,latitude,longitude,relative_humidity,qcFlag 
TABS,ioos:station:wmo:42043:1,2019-05-01T04:00:00Z,28.9818,-94.9186,96.3,11111222 
TABS,ioos:station:wmo:42043:1,2019-05-01T05:30:00Z,28.9818,-94.9186,95.7,11111222 
TABS,ioos:station:wmo:42043:1,2019-05-01T06:00:00Z,28.9818,-94.9186,95.4,11111222 
TABS,ioos:station:wmo:42043:1,2019-05-01T07:00:00Z,28.9818,-94.9186,95.7,11111222 
TABS,ioos:station:wmo:42043:1,2019-05-01T08:00:00Z,28.9818,-94.9186,95.5,11111222 
TABS,ioos:station:wmo:42043:1,2019-05-01T09:00:00Z,28.9818,-94.9186,95.7,11111222 
TABS,ioos:station:wmo:42043:1,2019-05-01T10:00:00Z,28.9818,-94.9186,94.9,11111222 
TABS,ioos:station:wmo:42043:1,2019-05-01T11:00:00Z,28.9818,-94.9186,94.9,11111222 
TABS,ioos:station:wmo:42043:1,2019-05-01T12:00:00Z,28.9818,-94.9186,95.1,11111222 
TABS,ioos:station:wmo:42043:1,2019-05-01T13:00:00Z,28.9818,-94.9186,94.8,11111222 
TABS,ioos:station:wmo:42043:1,2019-05-01T14:00:00Z,28.9818,-94.9186,93.9,11111222 
TABS,ioos:station:wmo:42043:1,2019-05-01T15:00:00Z,28.9818,-94.9186,94.6,11111222 
TABS,ioos:station:wmo:42043:1,2019-05-01T16:00:00Z,28.9818,-94.9186,94.2,11111222 
TABS,ioos:station:wmo:42043:1,2019-05-01T17:00:00Z,28.9818,-94.9186,93.6,11111222 
TABS,ioos:station:wmo:42043:1,2019-05-01T18:00:00Z,28.9818,-94.9186,94.0,11111222 
TABS,ioos:station:wmo:42043:1,2019-05-01T19:00:00Z,28.9818,-94.9186,93.4,11111222 
TABS,ioos:station:wmo:42043:1,2019-05-01T20:00:00Z,28.9818,-94.9186,93.8,11111222 
TABS,ioos:station:wmo:42043:1,2019-05-01T20:30:00Z,28.9818,-94.9186,93.6,11111222 
TABS,ioos:station:wmo:42043:1,2019-05-01T22:00:00Z,28.9818,-94.9186,93.9,11111222 
TABS,ioos:station:wmo:42043:1,2019-05-01T23:00:00Z,28.9818,-94.9186,95.1,11111222 
TABS,ioos:station:wmo:42043:1,2019-05-01T23:30:00Z,28.9818,-94.9186,95.5,11111222 
TABS,ioos:station:wmo:42043:1,2019-05-02T04:00:00Z,28.9818,-94.9186,94.3,11111222 
TABS,ioos:station:wmo:42043:1,2019-05-02T05:00:00Z,28.9818,-94.9186,94.2,11111222 
TABS,ioos:station:wmo:42043:1,2019-05-02T06:00:00Z,28.9818,-94.9186,95.0,11111222 
TABS,ioos:station:wmo:42043:1,2019-05-02T07:00:00Z,28.9818,-94.9186,96.1,11111222 
TABS,ioos:station:wmo:42043:1,2019-05-02T08:00:00Z,28.9818,-94.9186,95.7,11111222 
TABS,ioos:station:wmo:42043:1,2019-05-02T09:00:00Z,28.9818,-94.9186,96.3,11111222 
TABS,ioos:station:wmo:42043:1,2019-05-02T10:00:00Z,28.9818,-94.9186,94.5,11111222 
TABS,ioos:station:wmo:42043:1,2019-05-02T11:00:00Z,28.9818,-94.9186,94.8,11111222 
TABS,ioos:station:wmo:42043:1,2019-05-02T12:00:00Z,28.9818,-94.9186,94.5,11111222 
TABS,ioos:station:wmo:42043:1,2019-05-02T13:00:00Z,28.9818,-94.9186,93.9,11111222 
TABS,ioos:station:wmo:42043:1,2019-05-02T14:00:00Z,28.9818,-94.9186,94.6,11111222 
TABS,ioos:station:wmo:42043:1,2019-05-02T15:00:00Z,28.9818,-94.9186,90.7,11111222 
TABS,ioos:station:wmo:42043:1,2019-05-02T16:00:00Z,28.9818,-94.9186,92.3,11111222 
TABS,ioos:station:wmo:42043:1,2019-05-02T17:00:00Z,28.9818,-94.9186,93.4,11111222 
TABS,ioos:station:wmo:42043:1,2019-05-02T18:00:00Z,28.9818,-94.9186,94.6,11111222 
TABS,ioos:station:wmo:42043:1,2019-05-02T19:00:00Z,28.9818,-94.9186,94.8,11111222 
TABS,ioos:station:wmo:42043:1,2019-05-02T20:00:00Z,28.9818,-94.9186,94.9,11111222 
TABS,ioos:station:wmo:42043:1,2019-05-02T21:00:00Z,28.9818,-94.9186,95.3,11111222 
TABS,ioos:station:wmo:42043:1,2019-05-02T22:00:00Z,28.9818,-94.9186,94.9,11111222 
TABS,ioos:station:wmo:42043:1,2019-05-02T23:00:00Z,28.9818,-94.9186,94.6,11111222 
TABS,ioos:station:wmo:42043:1,2019-05-02T23:30:00Z,28.9818,-94.9186,95.0,11111222 
TABS,ioos:station:wmo:42043:1,2019-05-03T04:00:00Z,28.9818,-94.9186,96.0,11111222 
TABS,ioos:station:wmo:42043:1,2019-05-03T05:00:00Z,28.9818,-94.9186,97.8,11111222 
TABS,ioos:station:wmo:42043:1,2019-05-03T06:00:00Z,28.9818,-94.9186,98.1,11111222 
TABS,ioos:station:wmo:42043:1,2019-05-03T07:00:00Z,28.9818,-94.9186,98.8,11111222 
TABS,ioos:station:wmo:42043:1,2019-05-03T08:00:00Z,28.9818,-94.9186,98.7,11111222 
TABS,ioos:station:wmo:42043:1,2019-05-03T09:00:00Z,28.9818,-94.9186,98.7,11111222 
TABS,ioos:station:wmo:42043:1,2019-05-03T10:00:00Z,28.9818,-94.9186,97.8,11111222 
TABS,ioos:station:wmo:42043:1,2019-05-03T11:00:00Z,28.9818,-94.9186,97.8,11111222 
TABS,ioos:station:wmo:42043:1,2019-05-03T12:00:00Z,28.9818,-94.9186,96.3,11111222 
TABS,ioos:station:wmo:42043:1,2019-05-03T13:00:00Z,28.9818,-94.9186,97.5,11111222 
TABS,ioos:station:wmo:42043:1,2019-05-03T14:00:00Z,28.9818,-94.9186,96.1,11111222 
TABS,ioos:station:wmo:42043:1,2019-05-03T15:00:00Z,28.9818,-94.9186,96.2,11111222 
TABS,ioos:station:wmo:42043:1,2019-05-03T16:00:00Z,28.9818,-94.9186,96.5,11111222 
TABS,ioos:station:wmo:42043:1,2019-05-03T17:00:00Z,28.9818,-94.9186,95.6,11111222 
TABS,ioos:station:wmo:42043:1,2019-05-03T18:00:00Z,28.9818,-94.9186,95.0,11111222 
TABS,ioos:station:wmo:42043:1,2019-05-03T19:00:00Z,28.9818,-94.9186,94.6,11111222 
TABS,ioos:station:wmo:42043:1,2019-05-03T20:00:00Z,28.9818,-94.9186,94.6,11111222 
TABS,ioos:station:wmo:42043:1,2019-05-03T21:00:00Z,28.9818,-94.9186,94.5,11111222 
TABS,ioos:station:wmo:42043:1,2019-05-03T22:00:00Z,28.9818,-94.9186,95.4,11111222 
TABS,ioos:station:wmo:42043:1,2019-05-03T23:00:00Z,28.9818,-94.9186,96.7,11111222 
TABS,ioos:station:wmo:42043:1,2019-05-03T23:30:00Z,28.9818,-94.9186,96.5,11111222 
TABS,ioos:station:wmo:42043:1,2019-05-04T04:00:00Z,28.9818,-94.9186,98.8,11111222 
TABS,ioos:station:wmo:42043:1,2019-05-04T05:00:00Z,28.9818,-94.9186,98.8,11111222 
TABS,ioos:station:wmo:42043:1,2019-05-04T06:00:00Z,28.9818,-94.9186,98.9,11111222 
TABS,ioos:station:wmo:42043:1,2019-05-04T07:00:00Z,28.9818,-94.9186,98.9,11111222 
TABS,ioos:station:wmo:42043:1,2019-05-04T08:00:00Z,28.9818,-94.9186,98.6,11111222 
TABS,ioos:station:wmo:42043:1,2019-05-04T09:00:00Z,28.9818,-94.9186,92.8,11111222 
TABS,ioos:station:wmo:42043:1,2019-05-04T10:00:00Z,28.9818,-94.9186,87.6,11111222 
TABS,ioos:station:wmo:42043:1,2019-05-04T11:00:00Z,28.9818,-94.9186,74.0,11111222 
TABS,ioos:station:wmo:42043:1,2019-05-04T12:00:00Z,28.9818,-94.9186,75.3,11111222 
TABS,ioos:station:wmo:42043:1,2019-05-04T13:00:00Z,28.9818,-94.9186,94.1,11111222 
TABS,ioos:station:wmo:42043:1,2019-05-04T14:00:00Z,28.9818,-94.9186,89.1,11111222 
TABS,ioos:station:wmo:42043:1,2019-05-04T15:00:00Z,28.9818,-94.9186,85.4,11111222 
TABS,ioos:station:wmo:42043:1,2019-05-04T16:00:00Z,28.9818,-94.9186,83.2,11111222 
TABS,ioos:station:wmo:42043:1,2019-05-04T17:00:00Z,28.9818,-94.9186,83.7,11111222 
TABS,ioos:station:wmo:42043:1,2019-05-04T18:00:00Z,28.9818,-94.9186,84.1,11111222 
TABS,ioos:station:wmo:42043:1,2019-05-04T19:00:00Z,28.9818,-94.9186,82.3,11111222 
TABS,ioos:station:wmo:42043:1,2019-05-04T20:00:00Z,28.9818,-94.9186,84.7,11111222 
TABS,ioos:station:wmo:42043:1,2019-05-04T21:00:00Z,28.9818,-94.9186,81.1,11111222 
TABS,ioos:station:wmo:42043:1,2019-05-04T22:00:00Z,28.9818,-94.9186,79.4,11111222 
TABS,ioos:station:wmo:42043:1,2019-05-04T23:00:00Z,28.9818,-94.9186,78.5,11111222 
TABS,ioos:station:wmo:42043:1,2019-05-04T23:30:00Z,28.9818,-94.9186,78.0,11111222 
TABS,ioos:station:wmo:42043:1,2019-05-05T04:00:00Z,28.9818,-94.9186,85.1,11111222 
TABS,ioos:station:wmo:42043:1,2019-05-05T05:00:00Z,28.9818,-94.9186,86.1,11111222 
TABS,ioos:station:wmo:42043:1,2019-05-05T06:00:00Z,28.9818,-94.9186,87.3,11111222 
TABS,ioos:station:wmo:42043:1,2019-05-05T07:00:00Z,28.9818,-94.9186,87.8,11111222 
TABS,ioos:station:wmo:42043:1,2019-05-05T08:00:00Z,28.9818,-94.9186,89.8,11111222 
TABS,ioos:station:wmo:42043:1,2019-05-05T09:00:00Z,28.9818,-94.9186,81.6,11111222 
TABS,ioos:station:wmo:42043:1,2019-05-05T10:00:00Z,28.9818,-94.9186,86.0,11111222 
TABS,ioos:station:wmo:42043:1,2019-05-05T11:00:00Z,28.9818,-94.9186,84.6,11111222 
TABS,ioos:station:wmo:42043:1,2019-05-05T11:30:00Z,28.9818,-94.9186,82.5,11111222 
TABS,ioos:station:wmo:42043:1,2019-05-05T13:00:00Z,28.9818,-94.9186,80.4,11111222 
TABS,ioos:station:wmo:42043:1,2019-05-05T14:00:00Z,28.9818,-94.9186,82.8,11111222 
TABS,ioos:station:wmo:42043:1,2019-05-05T15:00:00Z,28.9818,-94.9186,82.5,11111222 
TABS,ioos:station:wmo:42043:1,2019-05-05T16:00:00Z,28.9818,-94.9186,84.5,11111222 
TABS,ioos:station:wmo:42043:1,2019-05-05T17:00:00Z,28.9818,-94.9186,85.7,11111222 
TABS,ioos:station:wmo:42043:1,2019-05-05T18:00:00Z,28.9818,-94.9186,85.1,11111222 
TABS,ioos:station:wmo:42043:1,2019-05-05T19:00:00Z,28.9818,-94.9186,82.2,11111222 
TABS,ioos:station:wmo:42043:1,2019-05-05T20:00:00Z,28.9818,-94.9186,81.7,11111222 
TABS,ioos:station:wmo:42043:1,2019-05-05T21:00:00Z,28.9818,-94.9186,81.4,11111222 
TABS,ioos:station:wmo:42043:1,2019-05-05T22:00:00Z,28.9818,-94.9186,80.9,11111222 
TABS,ioos:station:wmo:42043:1,2019-05-05T23:00:00Z,28.9818,-94.9186,78.0,11111222 
TABS,ioos:station:wmo:42043:1,2019-05-05T23:30:00Z,28.9818,-94.9186,79.5,11111222 
TABS,ioos:station:wmo:42043:1,2019-05-06T04:00:00Z,28.9818,-94.9186,73.9,11111222 
TABS,ioos:station:wmo:42043:1,2019-05-06T05:00:00Z,28.9818,-94.9186,73.7,11111222 
TABS,ioos:station:wmo:42043:1,2019-05-06T06:00:00Z,28.9818,-94.9186,73.1,11111222 
TABS,ioos:station:wmo:42043:1,2019-05-06T07:00:00Z,28.9818,-94.9186,75.9,11111222 
TABS,ioos:station:wmo:42043:1,2019-05-06T08:00:00Z,28.9818,-94.9186,77.6,11111222 
TABS,ioos:station:wmo:42043:1,2019-05-06T09:00:00Z,28.9818,-94.9186,78.9,11111222 
TABS,ioos:station:wmo:42043:1,2019-05-06T10:00:00Z,28.9818,-94.9186,77.5,11111222 
TABS,ioos:station:wmo:42043:1,2019-05-06T11:00:00Z,28.9818,-94.9186,79.2,11111222 
TABS,ioos:station:wmo:42043:1,2019-05-06T12:00:00Z,28.9818,-94.9186,78.7,11111222 
TABS,ioos:station:wmo:42043:1,2019-05-06T13:00:00Z,28.9818,-94.9186,75.2,11111222 
TABS,ioos:station:wmo:42043:1,2019-05-06T14:00:00Z,28.9818,-94.9186,75.2,11111222 
TABS,ioos:station:wmo:42043:1,2019-05-06T15:00:00Z,28.9818,-94.9186,79.5,11111222 
TABS,ioos:station:wmo:42043:1,2019-05-06T16:00:00Z,28.9818,-94.9186,80.7,11111222 
TABS,ioos:station:wmo:42043:1,2019-05-06T17:00:00Z,28.9818,-94.9186,82.3,11111222 
TABS,ioos:station:wmo:42043:1,2019-05-06T18:00:00Z,28.9818,-94.9186,81.8,11111222 
TABS,ioos:station:wmo:42043:1,2019-05-06T19:00:00Z,28.9818,-94.9186,83.8,11111222 
TABS,ioos:station:wmo:42043:1,2019-05-06T20:00:00Z,28.9818,-94.9186,83.1,11111222 
TABS,ioos:station:wmo:42043:1,2019-05-06T21:00:00Z,28.9818,-94.9186,84.5,11111222 
TABS,ioos:station:wmo:42043:1,2019-05-06T22:00:00Z,28.9818,-94.9186,85.1,11111222 
TABS,ioos:station:wmo:42043:1,2019-05-06T23:00:00Z,28.9818,-94.9186,85.6,11111222 
TABS,ioos:station:wmo:42043:1,2019-05-06T23:30:00Z,28.9818,-94.9186,87.7,11111222 
TABS,ioos:station:wmo:42043:1,2019-05-07T04:00:00Z,28.9818,-94.9186,93.0,11111222 
TABS,ioos:station:wmo:42043:1,2019-05-07T05:00:00Z,28.9818,-94.9186,93.8,11111222 
TABS,ioos:station:wmo:42043:1,2019-05-07T06:00:00Z,28.9818,-94.9186,94.7,11111222 
TABS,ioos:station:wmo:42043:1,2019-05-07T07:00:00Z,28.9818,-94.9186,95.3,11111222 
TABS,ioos:station:wmo:42043:1,2019-05-07T08:00:00Z,28.9818,-94.9186,95.7,11111222 
TABS,ioos:station:wmo:42043:1,2019-05-07T09:00:00Z,28.9818,-94.9186,96.3,11111222 
TABS,ioos:station:wmo:42043:1,2019-05-07T10:00:00Z,28.9818,-94.9186,94.4,11111222 
TABS,ioos:station:wmo:42043:1,2019-05-07T11:00:00Z,28.9818,-94.9186,95.3,11111222 
TABS,ioos:station:wmo:42043:1,2019-05-07T12:00:00Z,28.9818,-94.9186,96.8,11111222 
TABS,ioos:station:wmo:42043:1,2019-05-07T13:00:00Z,28.9818,-94.9186,96.5,11111222 
TABS,ioos:station:wmo:42043:1,2019-05-07T14:00:00Z,28.9818,-94.9186,96.0,11111222 
TABS,ioos:station:wmo:42043:1,2019-05-07T15:00:00Z,28.9818,-94.9186,96.7,11111222 
TABS,ioos:station:wmo:42043:1,2019-05-07T16:00:00Z,28.9818,-94.9186,96.5,11111222 
TABS,ioos:station:wmo:42043:1,2019-05-07T17:00:00Z,28.9818,-94.9186,96.9,11111222 
TABS,ioos:station:wmo:42043:1,2019-05-07T18:00:00Z,28.9818,-94.9186,96.9,11111222 
TABS,ioos:station:wmo:42043:1,2019-05-07T19:00:00Z,28.9818,-94.9186,96.8,11111222 
TABS,ioos:station:wmo:42043:1,2019-05-07T20:00:00Z,28.9818,-94.9186,88.4,11111222 
TABS,ioos:station:wmo:42043:1,2019-05-07T21:00:00Z,28.9818,-94.9186,90.9,11111222 
TABS,ioos:station:wmo:42043:1,2019-05-07T22:00:00Z,28.9818,-94.9186,88.5,11111222 
TABS,ioos:station:wmo:42043:1,2019-05-07T23:00:00Z,28.9818,-94.9186,85.5,11111222 
TABS,ioos:station:wmo:42043:1,2019-05-07T23:30:00Z,28.9818,-94.9186,83.7,11111222 
TABS,ioos:station:wmo:42043:1,2019-05-08T04:00:00Z,28.9818,-94.9186,90.6,11111222 
TABS,ioos:station:wmo:42043:1,2019-05-08T05:00:00Z,28.9818,-94.9186,93.0,11111222 
TABS,ioos:station:wmo:42043:1,2019-05-08T06:00:00Z,28.9818,-94.9186,94.1,11111222 
TABS,ioos:station:wmo:42043:1,2019-05-08T07:00:00Z,28.9818,-94.9186,83.1,11111222 
TABS,ioos:station:wmo:42043:1,2019-05-08T08:00:00Z,28.9818,-94.9186,87.0,11111222 
TABS,ioos:station:wmo:42043:1,2019-05-08T09:00:00Z,28.9818,-94.9186,84.2,11111222 
TABS,ioos:station:wmo:42043:1,2019-05-08T10:00:00Z,28.9818,-94.9186,90.9,11111222 
TABS,ioos:station:wmo:42043:1,2019-05-08T11:00:00Z,28.9818,-94.9186,92.7,11111222 
TABS,ioos:station:wmo:42043:1,2019-05-08T12:00:00Z,28.9818,-94.9186,93.1,11111222 
TABS,ioos:station:wmo:42043:1,2019-05-08T13:00:00Z,28.9818,-94.9186,94.9,11111222 
TABS,ioos:station:wmo:42043:1,2019-05-08T14:00:00Z,28.9818,-94.9186,94.7,11111222 
TABS,ioos:station:wmo:42043:1,2019-05-08T15:00:00Z,28.9818,-94.9186,95.5,11111222 
TABS,ioos:station:wmo:42043:1,2019-05-08T16:00:00Z,28.9818,-94.9186,95.5,11111222 
TABS,ioos:station:wmo:42043:1,2019-05-08T17:30:00Z,28.9818,-94.9186,96.4,11111222 
TABS,ioos:station:wmo:42043:1,2019-05-08T18:30:00Z,28.9818,-94.9186,96.7,11111222 
TABS,ioos:station:wmo:42043:1,2019-05-08T20:00:00Z,28.9818,-94.9186,96.5,11111222 
TABS,ioos:station:wmo:42043:1,2019-05-08T21:00:00Z,28.9818,-94.9186,96.4,11111222 
TABS,ioos:station:wmo:42043:1,2019-05-08T21:30:00Z,28.9818,-94.9186,97.0,11111222 
TABS,ioos:station:wmo:42043:1,2019-05-08T22:30:00Z,28.9818,-94.9186,96.5,11111222 
TABS,ioos:station:wmo:42043:1,2019-05-08T23:30:00Z,28.9818,-94.9186,97.0,11111222 
TABS,ioos:station:wmo:42043:1,2019-05-09T04:00:00Z,28.9818,-94.9186,96.8,11111222 
TABS,ioos:station:wmo:42043:1,2019-05-09T05:00:00Z,28.9818,-94.9186,97.3,11111222 
TABS,ioos:station:wmo:42043:1,2019-05-09T06:00:00Z,28.9818,-94.9186,96.6,11111222 
TABS,ioos:station:wmo:42043:1,2019-05-09T07:00:00Z,28.9818,-94.9186,97.8,11111222 
TABS,ioos:station:wmo:42043:1,2019-05-09T08:00:00Z,28.9818,-94.9186,98.5,11111222 
TABS,ioos:station:wmo:42043:1,2019-05-09T09:00:00Z,28.9818,-94.9186,98.6,11111222 
TABS,ioos:station:wmo:42043:1,2019-05-09T09:30:00Z,28.9818,-94.9186,98.7,11111222 
TABS,ioos:station:wmo:42043:1,2019-05-09T11:00:00Z,28.9818,-94.9186,98.7,11111222 
TABS,ioos:station:wmo:42043:1,2019-05-09T12:00:00Z,28.9818,-94.9186,98.8,11111222 
TABS,ioos:station:wmo:42043:1,2019-05-09T13:00:00Z,28.9818,-94.9186,98.8,11111222 
TABS,ioos:station:wmo:42043:1,2019-05-09T14:00:00Z,28.9818,-94.9186,98.8,11111222 
TABS,ioos:station:wmo:42043:1,2019-05-09T15:00:00Z,28.9818,-94.9186,98.9,11111222 
TABS,ioos:station:wmo:42043:1,2019-05-09T16:00:00Z,28.9818,-94.9186,98.8,11111222 
TABS,ioos:station:wmo:42043:1,2019-05-09T17:00:00Z,28.9818,-94.9186,98.2,11111222 
TABS,ioos:station:wmo:42043:1,2019-05-09T18:00:00Z,28.9818,-94.9186,98.4,11111222 
TABS,ioos:station:wmo:42043:1,2019-05-09T19:00:00Z,28.9818,-94.9186,97.7,11111222 
TABS,ioos:station:wmo:42043:1,2019-05-09T20:00:00Z,28.9818,-94.9186,96.9,11111222 
TABS,ioos:station:wmo:42043:1,2019-05-09T21:00:00Z,28.9818,-94.9186,97.8,11111222 
TABS,ioos:station:wmo:42043:1,2019-05-09T22:00:00Z,28.9818,-94.9186,98.1,11111222 
TABS,ioos:station:wmo:42043:1,2019-05-09T23:00:00Z,28.9818,-94.9186,98.7,11111222 
TABS,ioos:station:wmo:42043:1,2019-05-09T23:30:00Z,28.9818,-94.9186,98.8,11111222 
TABS,ioos:station:wmo:42043:1,2019-05-10T04:00:00Z,28.9818,-94.9186,98.8,11111222 
TABS,ioos:station:wmo:42043:1,2019-05-10T04:30:00Z,28.9818,-94.9186,98.8,11111222 
TABS,ioos:station:wmo:42043:1,2019-05-10T06:00:00Z,28.9818,-94.9186,98.8,11111222 
TABS,ioos:station:wmo:42043:1,2019-05-10T07:00:00Z,28.9818,-94.9186,99.2,11111222 
TABS,ioos:station:wmo:42043:1,2019-05-10T08:00:00Z,28.9818,-94.9186,98.9,11111222 
TABS,ioos:station:wmo:42043:1,2019-05-10T09:00:00Z,28.9818,-94.9186,98.6,11111222 
TABS,ioos:station:wmo:42043:1,2019-05-10T10:00:00Z,28.9818,-94.9186,98.6,11111222 
TABS,ioos:station:wmo:42043:1,2019-05-10T11:00:00Z,28.9818,-94.9186,96.7,11111222 
TABS,ioos:station:wmo:42043:1,2019-05-10T12:00:00Z,28.9818,-94.9186,85.7,11111222 
TABS,ioos:station:wmo:42043:1,2019-05-10T12:30:00Z,28.9818,-94.9186,92.2,11111222 
TABS,ioos:station:wmo:42043:1,2019-05-10T14:00:00Z,28.9818,-94.9186,88.3,11111222 
TABS,ioos:station:wmo:42043:1,2019-05-10T15:00:00Z,28.9818,-94.9186,88.1,11111222 
TABS,ioos:station:wmo:42043:1,2019-05-10T16:00:00Z,28.9818,-94.9186,89.5,11111222 
TABS,ioos:station:wmo:42043:1,2019-05-10T17:00:00Z,28.9818,-94.9186,88.2,11111222 
TABS,ioos:station:wmo:42043:1,2019-05-10T18:00:00Z,28.9818,-94.9186,86.8,11111222 
TABS,ioos:station:wmo:42043:1,2019-05-10T19:00:00Z,28.9818,-94.9186,89.4,11111222 
TABS,ioos:station:wmo:42043:1,2019-05-10T20:00:00Z,28.9818,-94.9186,86.2,11111222 
TABS,ioos:station:wmo:42043:1,2019-05-10T21:00:00Z,28.9818,-94.9186,86.6,11111222 
TABS,ioos:station:wmo:42043:1,2019-05-10T22:00:00Z,28.9818,-94.9186,89.4,11111222 
TABS,ioos:station:wmo:42043:1,2019-05-10T23:00:00Z,28.9818,-94.9186,82.4,11111222 
TABS,ioos:station:wmo:42043:1,2019-05-10T23:30:00Z,28.9818,-94.9186,80.8,11111222 
TABS,ioos:station:wmo:42043:1,2019-05-11T04:00:00Z,28.9818,-94.9186,91.1,11111222 
TABS,ioos:station:wmo:42043:1,2019-05-11T05:00:00Z,28.9818,-94.9186,88.0,11111222 
TABS,ioos:station:wmo:42043:1,2019-05-11T06:00:00Z,28.9818,-94.9186,89.4,11111222 
TABS,ioos:station:wmo:42043:1,2019-05-11T07:00:00Z,28.9818,-94.9186,94.5,11111222 
TABS,ioos:station:wmo:42043:1,2019-05-11T08:00:00Z,28.9818,-94.9186,93.7,11111222 
TABS,ioos:station:wmo:42043:1,2019-05-11T09:00:00Z,28.9818,-94.9186,94.9,11111222 
TABS,ioos:station:wmo:42043:1,2019-05-11T10:00:00Z,28.9818,-94.9186,98.7,11111222 
TABS,ioos:station:wmo:42043:1,2019-05-11T11:00:00Z,28.9818,-94.9186,98.7,11111222 
TABS,ioos:station:wmo:42043:1,2019-05-11T12:00:00Z,28.9818,-94.9186,97.2,11111222 
TABS,ioos:station:wmo:42043:1,2019-05-13T13:00:00Z,28.9818,-94.9186,77.5,11111222 
TABS,ioos:station:wmo:42043:1,2019-05-13T14:00:00Z,28.9818,-94.9186,77.9,11111222 
TABS,ioos:station:wmo:42043:1,2019-05-13T15:00:00Z,28.9818,-94.9186,75.3,11111222 
TABS,ioos:station:wmo:42043:1,2019-05-13T16:00:00Z,28.9818,-94.9186,74.2,11111222 
TABS,ioos:station:wmo:42043:1,2019-05-13T17:00:00Z,28.9818,-94.9186,75.7,11111222 
TABS,ioos:station:wmo:42043:1,2019-05-13T17:30:00Z,28.9818,-94.9186,79.5,11111222 
TABS,ioos:station:wmo:42043:1,2019-05-13T19:00:00Z,28.9818,-94.9186,76.4,11111222 
TABS,ioos:station:wmo:42043:1,2019-05-13T20:00:00Z,28.9818,-94.9186,76.1,11111222 
TABS,ioos:station:wmo:42043:1,2019-05-13T21:00:00Z,28.9818,-94.9186,73.3,11111222 
TABS,ioos:station:wmo:42043:1,2019-05-13T22:00:00Z,28.9818,-94.9186,75.3,11111222 
TABS,ioos:station:wmo:42043:1,2019-05-13T23:00:00Z,28.9818,-94.9186,73.5,11111222 
TABS,ioos:station:wmo:42043:1,2019-05-13T23:30:00Z,28.9818,-94.9186,70.9,11111222 
TABS,ioos:station:wmo:42043:1,2019-05-14T04:00:00Z,28.9818,-94.9186,75.2,11111222 
TABS,ioos:station:wmo:42043:1,2019-05-14T05:00:00Z,28.9818,-94.9186,78.0,11111222 
TABS,ioos:station:wmo:42043:1,2019-05-14T06:00:00Z,28.9818,-94.9186,78.6,11111222 
TABS,ioos:station:wmo:42043:1,2019-05-14T07:00:00Z,28.9818,-94.9186,77.0,11111222 
TABS,ioos:station:wmo:42043:1,2019-05-14T08:00:00Z,28.9818,-94.9186,80.1,11111222 
TABS,ioos:station:wmo:42043:1,2019-05-14T09:00:00Z,28.9818,-94.9186,82.3,11111222 
TABS,ioos:station:wmo:42043:1,2019-05-14T10:00:00Z,28.9818,-94.9186,84.3,11111222 
TABS,ioos:station:wmo:42043:1,2019-05-14T11:00:00Z,28.9818,-94.9186,85.4,11111222 
TABS,ioos:station:wmo:42043:1,2019-05-14T12:00:00Z,28.9818,-94.9186,84.2,11111222 
TABS,ioos:station:wmo:42043:1,2019-05-14T13:00:00Z,28.9818,-94.9186,83.0,11111222 
TABS,ioos:station:wmo:42043:1,2019-05-14T14:00:00Z,28.9818,-94.9186,83.4,11111222 
TABS,ioos:station:wmo:42043:1,2019-05-14T15:00:00Z,28.9818,-94.9186,82.7,11111222 
TABS,ioos:station:wmo:42043:1,2019-05-14T16:00:00Z,28.9818,-94.9186,82.3,11111222 
TABS,ioos:station:wmo:42043:1,2019-05-14T17:00:00Z,28.9818,-94.9186,78.4,11111222 
TABS,ioos:station:wmo:42043:1,2019-05-14T18:00:00Z,28.9818,-94.9186,82.2,11111222 
TABS,ioos:station:wmo:42043:1,2019-05-14T19:00:00Z,28.9818,-94.9186,79.5,11111222 
TABS,ioos:station:wmo:42043:1,2019-05-14T20:00:00Z,28.9818,-94.9186,79.2,11111222 
TABS,ioos:station:wmo:42043:1,2019-05-14T21:00:00Z,28.9818,-94.9186,80.9,11111222 
TABS,ioos:station:wmo:42043:1,2019-05-14T22:00:00Z,28.9818,-94.9186,78.6,11111222 
TABS,ioos:station:wmo:42043:1,2019-05-14T23:00:00Z,28.9818,-94.9186,79.3,11111222 
TABS,ioos:station:wmo:42043:1,2019-05-14T23:30:00Z,28.9818,-94.9186,78.7,11111222 
TABS,ioos:station:wmo:42043:1,2019-05-15T04:00:00Z,28.9818,-94.9186,78.7,11111222 
TABS,ioos:station:wmo:42043:1,2019-05-15T05:00:00Z,28.9818,-94.9186,73.2,11111222 
TABS,ioos:station:wmo:42043:1,2019-05-15T06:00:00Z,28.9818,-94.9186,78.5,11111222 
TABS,ioos:station:wmo:42043:1,2019-05-15T07:00:00Z,28.9818,-94.9186,76.4,11111222 
TABS,ioos:station:wmo:42043:1,2019-05-15T08:00:00Z,28.9818,-94.9186,75.0,11111222 
TABS,ioos:station:wmo:42043:1,2019-05-15T09:00:00Z,28.9818,-94.9186,69.6,11111222 
TABS,ioos:station:wmo:42043:1,2019-05-15T10:00:00Z,28.9818,-94.9186,68.1,11111222 
TABS,ioos:station:wmo:42043:1,2019-05-15T11:00:00Z,28.9818,-94.9186,67.2,11111222 
TABS,ioos:station:wmo:42043:1,2019-05-15T12:00:00Z,28.9818,-94.9186,68.9,11111222 
TABS,ioos:station:wmo:42043:1,2019-05-15T13:00:00Z,28.9818,-94.9186,69.2,11111222 
TABS,ioos:station:wmo:42043:1,2019-05-15T14:00:00Z,28.9818,-94.9186,68.6,11111222 
TABS,ioos:station:wmo:42043:1,2019-05-15T15:00:00Z,28.9818,-94.9186,70.3,11111222 
TABS,ioos:station:wmo:42043:1,2019-05-15T16:00:00Z,28.9818,-94.9186,71.5,11111222 
TABS,ioos:station:wmo:42043:1,2019-05-15T17:00:00Z,28.9818,-94.9186,77.8,11111222 
TABS,ioos:station:wmo:42043:1,2019-05-15T18:00:00Z,28.9818,-94.9186,75.9,11111222 
TABS,ioos:station:wmo:42043:1,2019-05-15T19:00:00Z,28.9818,-94.9186,75.6,11111222 
TABS,ioos:station:wmo:42043:1,2019-05-15T20:00:00Z,28.9818,-94.9186,76.2,11111222 
TABS,ioos:station:wmo:42043:1,2019-05-15T21:00:00Z,28.9818,-94.9186,72.8,11111222 
TABS,ioos:station:wmo:42043:1,2019-05-15T22:00:00Z,28.9818,-94.9186,72.3,11111222 
TABS,ioos:station:wmo:42043:1,2019-05-15T23:00:00Z,28.9818,-94.9186,71.1,11111222 
TABS,ioos:station:wmo:42043:1,2019-05-15T23:30:00Z,28.9818,-94.9186,69.1,11111222 
TABS,ioos:station:wmo:42043:1,2019-05-16T04:00:00Z,28.9818,-94.9186,76.3,11111222 
TABS,ioos:station:wmo:42043:1,2019-05-16T05:00:00Z,28.9818,-94.9186,82.0,11111222 
TABS,ioos:station:wmo:42043:1,2019-05-16T06:00:00Z,28.9818,-94.9186,81.0,11111222 
TABS,ioos:station:wmo:42043:1,2019-05-16T07:00:00Z,28.9818,-94.9186,86.7,11111222 
TABS,ioos:station:wmo:42043:1,2019-05-16T08:00:00Z,28.9818,-94.9186,86.0,11111222 
TABS,ioos:station:wmo:42043:1,2019-05-16T09:00:00Z,28.9818,-94.9186,87.9,11111222 
TABS,ioos:station:wmo:42043:1,2019-05-16T10:00:00Z,28.9818,-94.9186,88.4,11111222 
TABS,ioos:station:wmo:42043:1,2019-05-16T11:00:00Z,28.9818,-94.9186,88.5,11111222 
TABS,ioos:station:wmo:42043:1,2019-05-16T12:00:00Z,28.9818,-94.9186,89.1,11111222 
TABS,ioos:station:wmo:42043:1,2019-05-16T13:00:00Z,28.9818,-94.9186,86.3,11111222 
TABS,ioos:station:wmo:42043:1,2019-05-16T14:00:00Z,28.9818,-94.9186,86.9,11111222 
TABS,ioos:station:wmo:42043:1,2019-05-16T15:00:00Z,28.9818,-94.9186,84.9,11111222 
TABS,ioos:station:wmo:42043:1,2019-05-16T16:00:00Z,28.9818,-94.9186,85.4,11111222 
TABS,ioos:station:wmo:42043:1,2019-05-16T17:00:00Z,28.9818,-94.9186,86.4,11111222 
TABS,ioos:station:wmo:42043:1,2019-05-16T18:00:00Z,28.9818,-94.9186,83.3,11111222 
TABS,ioos:station:wmo:42043:1,2019-05-16T19:00:00Z,28.9818,-94.9186,85.8,11111222 